Time,TemperatureF,DewpointF,PressureIn,WindDirection,WindDirectionDegrees,WindSpeedMPH,WindSpeedGustMPH,Humidity,HourlyPrecipIn,Conditions,Clouds,dailyrainin,SolarRadiationWatts/m^2,SoftwareType,DateUTC
2013-08-27 00:01:00,75.3,73.5,30.09,ESE,104,4.0,4.0,94,0.00,,CLR,0.00,0.00,VWS V14.01,2013-08-27 04:01:00,
2013-08-27 00:07:00,75.2,73.4,30.09,East,83,2.0,7.0,94,0.00,,CLR,0.00,0.00,VWS V14.01,2013-08-27 04:07:00,
2013-08-27 00:12:00,75.1,73.3,30.09,ESE,120,3.0,7.0,94,0.00,,CLR,0.00,0.00,VWS V14.01,2013-08-27 04:12:00,
2013-08-27 00:17:00,74.9,73.1,30.09,ESE,109,6.0,8.0,94,0.00,,SCT034,0.00,0.00,VWS V14.01,2013-08-27 04:17:00,
2013-08-27 00:22:00,74.8,72.6,30.09,ESE,115,3.0,8.0,93,0.00,,SCT034,0.00,0.00,VWS V14.01,2013-08-27 04:22:00,
2013-08-27 00:27:00,74.8,72.6,30.09,ESE,122,2.0,8.0,93,0.00,,SCT034,0.00,0.00,VWS V14.01,2013-08-27 04:27:00,
2013-08-27 00:32:00,74.7,72.6,30.08,East,99,2.0,3.0,93,0.00,,SCT034,0.00,0.00,VWS V14.01,2013-08-27 04:32:00,
2013-08-27 00:37:00,74.6,72.4,30.08,ENE,76,1.0,4.0,93,0.00,,SCT035,0.00,0.00,VWS V14.01,2013-08-27 04:37:00,
2013-08-27 00:42:00,74.6,72.4,30.08,NE,47,2.0,4.0,93,0.00,,SCT035,0.00,0.00,VWS V14.01,2013-08-27 04:42:00,
2013-08-27 00:47:00,74.6,72.4,30.07,NE,47,1.0,4.0,93,0.00,,SCT035,0.00,0.00,VWS V14.01,2013-08-27 04:47:00,
2013-08-27 00:52:00,74.4,72.2,30.07,NE,47,1.0,4.0,93,0.00,,SCT035,0.00,0.00,VWS V14.01,2013-08-27 04:52:00,
2013-08-27 00:57:00,74.3,72.2,30.07,NE,42,3.0,4.0,93,0.00,,CLR,0.00,0.00,VWS V14.01,2013-08-27 04:57:00,
2013-08-27 01:02:00,74.2,72.4,30.06,North,10,3.0,4.0,94,0.00,,CLR,0.00,0.00,VWS V14.01,2013-08-27 05:02:00,
2013-08-27 01:07:00,74.0,71.8,30.06,North,360,2.0,4.0,93,0.00,,CLR,0.00,0.00,VWS V14.01,2013-08-27 05:07:00,
2013-08-27 01:12:00,74.2,72.4,30.06,North,11,2.0,4.0,94,0.00,,CLR,0.00,0.00,VWS V14.01,2013-08-27 05:12:00,
2013-08-27 01:17:00,74.2,72.4,30.06,North,9,3.0,4.0,94,0.00,,CLR,0.00,0.00,VWS V14.01,2013-08-27 05:17:00,
2013-08-27 01:22:00,74.2,72.4,30.06,North,355,1.0,4.0,94,0.00,,CLR,0.00,0.00,VWS V14.01,2013-08-27 05:22:00,
2013-08-27 01:27:00,74.0,72.5,30.06,North,360,2.0,4.0,95,0.00,,CLR,0.00,0.00,VWS V14.01,2013-08-27 05:27:00,
2013-08-27 01:32:00,73.8,72.3,30.06,North,360,1.0,3.0,95,0.00,,CLR,0.00,0.00,VWS V14.01,2013-08-27 05:32:00,
2013-08-27 01:41:00,73.7,72.2,30.05,North,360,1.0,3.0,95,0.00,,CLR,0.00,0.00,VWS V14.01,2013-08-27 05:41:00,
2013-08-27 01:46:00,73.6,72.1,30.05,North,9,3.0,3.0,95,0.00,,CLR,0.00,0.00,VWS V14.01,2013-08-27 05:46:00,
2013-08-27 01:51:00,73.5,72.0,30.05,NNE,26,3.0,4.0,95,0.00,,CLR,0.00,0.00,VWS V14.01,2013-08-27 05:51:00,
2013-08-27 01:56:00,73.4,71.9,30.05,NNE,23,3.0,4.0,95,0.00,,CLR,0.00,0.00,VWS V14.01,2013-08-27 05:56:00,
2013-08-27 02:01:00,73.4,72.2,30.05,NNE,26,0.0,1.0,96,0.00,,CLR,0.00,0.00,VWS V14.01,2013-08-27 06:01:00,
2013-08-27 02:06:00,73.3,72.1,30.04,NNE,26,2.0,2.0,96,0.00,,CLR,0.00,0.00,VWS V14.01,2013-08-27 06:06:00,
2013-08-27 02:11:00,73.3,72.1,30.04,NNE,26,2.0,3.0,96,0.00,,CLR,0.00,0.00,VWS V14.01,2013-08-27 06:11:00,
2013-08-27 02:16:00,73.3,72.1,30.04,NNE,21,4.0,4.0,96,0.00,,CLR,0.00,0.00,VWS V14.01,2013-08-27 06:16:00,
2013-08-27 02:21:00,73.3,72.1,30.04,NNE,24,3.0,4.0,96,0.00,,CLR,0.00,0.00,VWS V14.01,2013-08-27 06:21:00,
2013-08-27 02:26:00,73.4,72.2,30.04,NE,38,3.0,5.0,96,0.00,,CLR,0.00,0.00,VWS V14.01,2013-08-27 06:26:00,
2013-08-27 02:31:00,73.5,72.3,30.04,NNE,24,5.0,5.0,96,0.00,,CLR,0.00,0.00,VWS V14.01,2013-08-27 06:31:00,
2013-08-27 02:36:00,73.5,72.3,30.04,North,9,3.0,5.0,96,0.00,,CLR,0.00,0.00,VWS V14.01,2013-08-27 06:36:00,
2013-08-27 02:41:00,73.5,72.3,30.04,NNE,15,4.0,5.0,96,0.00,,CLR,0.00,0.00,VWS V14.01,2013-08-27 06:41:00,
2013-08-27 02:46:00,73.5,72.3,30.04,NNE,19,2.0,5.0,96,0.00,,CLR,0.00,0.00,VWS V14.01,2013-08-27 06:46:00,
2013-08-27 02:51:00,73.5,72.3,30.04,North,11,5.0,5.0,96,0.00,,CLR,0.00,0.00,VWS V14.01,2013-08-27 06:51:00,
2013-08-27 02:56:00,73.6,72.4,30.04,NNE,33,3.0,5.0,96,0.00,,CLR,0.00,0.00,VWS V14.01,2013-08-27 06:56:00,
2013-08-27 03:01:00,73.6,72.4,30.04,NNE,20,3.0,4.0,96,0.00,,CLR,0.00,0.00,VWS V14.01,2013-08-27 07:01:00,
2013-08-27 03:06:00,73.5,72.3,30.04,NNE,13,2.0,5.0,96,0.00,,CLR,0.00,0.00,VWS V14.01,2013-08-27 07:06:00,
2013-08-27 03:11:00,73.5,72.3,30.04,NNE,17,5.0,7.0,96,0.00,,CLR,0.00,0.00,VWS V14.01,2013-08-27 07:11:00,
2013-08-27 03:16:00,73.4,72.2,30.04,NNE,19,4.0,7.0,96,0.00,,CLR,0.00,0.00,VWS V14.01,2013-08-27 07:16:00,
2013-08-27 03:21:00,73.5,72.3,30.04,NNE,13,4.0,7.0,96,0.00,,CLR,0.00,0.00,VWS V14.01,2013-08-27 07:21:00,
2013-08-27 03:26:00,73.4,72.2,30.04,NNE,21,3.0,7.0,96,0.00,,CLR,0.00,0.00,VWS V14.01,2013-08-27 07:26:00,
2013-08-27 03:31:00,73.3,72.1,30.03,NNE,28,0.0,1.0,96,0.00,,CLR,0.00,0.00,VWS V14.01,2013-08-27 07:31:00,
2013-08-27 03:36:00,73.4,72.2,30.03,NNE,27,4.0,5.0,96,0.00,,CLR,0.00,0.00,VWS V14.01,2013-08-27 07:36:00,
2013-08-27 03:41:00,73.5,72.3,30.03,NE,36,0.0,5.0,96,0.00,,CLR,0.00,0.00,VWS V14.01,2013-08-27 07:41:00,
2013-08-27 03:46:00,73.5,72.3,30.03,NE,49,2.0,5.0,96,0.00,,CLR,0.00,0.00,VWS V14.01,2013-08-27 07:46:00,
2013-08-27 03:51:00,73.5,72.3,30.03,NNE,32,4.0,5.0,96,0.00,,CLR,0.00,0.00,VWS V14.01,2013-08-27 07:51:00,
2013-08-27 03:56:00,73.5,72.3,30.03,NNE,20,3.0,8.0,96,0.00,,CLR,0.00,0.00,VWS V14.01,2013-08-27 07:56:00,
2013-08-27 04:01:00,73.5,72.3,30.03,NNE,28,3.0,4.0,96,0.00,,CLR,0.00,0.00,VWS V14.01,2013-08-27 08:01:00,
2013-08-27 04:06:00,73.6,72.4,30.03,NE,34,1.0,5.0,96,0.00,,CLR,0.00,0.00,VWS V14.01,2013-08-27 08:06:00,
2013-08-27 04:11:00,73.6,72.4,30.03,NE,34,2.0,5.0,96,0.00,,CLR,0.00,0.00,VWS V14.01,2013-08-27 08:11:00,
2013-08-27 04:16:00,73.6,72.4,30.03,NNE,26,4.0,5.0,96,0.00,,CLR,0.00,0.00,VWS V14.01,2013-08-27 08:16:00,
2013-08-27 04:21:00,73.7,72.5,30.03,NNE,24,4.0,5.0,96,0.00,,CLR,0.00,0.00,VWS V14.01,2013-08-27 08:21:00,
2013-08-27 04:26:00,73.7,72.5,30.03,NNE,12,4.0,7.0,96,0.00,,CLR,0.00,0.00,VWS V14.01,2013-08-27 08:26:00,
2013-08-27 04:31:00,73.6,72.4,30.03,NNE,19,1.0,2.0,96,0.00,,CLR,0.00,0.00,VWS V14.01,2013-08-27 08:31:00,
2013-08-27 04:36:00,73.6,72.4,30.03,NNE,19,1.0,3.0,96,0.00,,CLR,0.00,0.00,VWS V14.01,2013-08-27 08:36:00,
2013-08-27 04:41:00,73.5,72.3,30.02,NNE,19,2.0,3.0,96,0.00,,CLR,0.00,0.00,VWS V14.01,2013-08-27 08:41:00,
2013-08-27 04:46:00,73.5,72.3,30.02,North,351,3.0,4.0,96,0.00,,CLR,0.00,0.00,VWS V14.01,2013-08-27 08:46:00,
2013-08-27 04:51:00,73.4,72.2,30.02,NNE,14,2.0,5.0,96,0.00,,CLR,0.00,0.00,VWS V14.01,2013-08-27 08:51:00,
2013-08-27 04:56:00,73.4,72.5,30.02,North,9,2.0,5.0,97,0.00,,CLR,0.00,0.00,VWS V14.01,2013-08-27 08:56:00,
2013-08-27 05:01:00,73.3,72.4,30.02,NNE,14,2.0,3.0,97,0.00,,FEW029,0.00,0.00,VWS V14.01,2013-08-27 09:01:00,
2013-08-27 05:06:00,73.3,72.4,30.03,NNE,13,2.0,4.0,97,0.00,,FEW029,0.00,0.00,VWS V14.01,2013-08-27 09:06:00,
2013-08-27 05:11:00,73.2,72.3,30.02,NNE,17,1.0,4.0,97,0.00,,FEW029,0.00,0.00,VWS V14.01,2013-08-27 09:11:00,
2013-08-27 05:16:00,73.2,72.3,30.03,NNE,24,3.0,5.0,97,0.00,,FEW029,0.00,0.00,VWS V14.01,2013-08-27 09:16:00,
2013-08-27 05:21:00,73.1,72.2,30.03,NNE,19,3.0,5.0,97,0.00,,CLR,0.00,0.00,VWS V14.01,2013-08-27 09:21:00,
2013-08-27 05:26:00,73.1,72.2,30.03,NNE,17,2.0,5.0,97,0.00,,CLR,0.00,0.00,VWS V14.01,2013-08-27 09:26:00,
2013-08-27 05:32:00,73.0,72.1,30.03,NNE,19,2.0,4.0,97,0.00,,CLR,0.00,0.00,VWS V14.01,2013-08-27 09:32:00,
2013-08-27 05:37:00,73.1,72.2,30.03,NNE,24,1.0,4.0,97,0.00,,CLR,0.00,0.00,VWS V14.01,2013-08-27 09:37:00,
2013-08-27 05:42:00,73.0,72.1,30.03,NNE,20,3.0,4.0,97,0.00,,CLR,0.00,0.00,VWS V14.01,2013-08-27 09:42:00,
2013-08-27 05:47:00,73.0,72.1,30.03,NNE,22,3.0,4.0,97,0.00,,CLR,0.00,0.00,VWS V14.01,2013-08-27 09:47:00,
2013-08-27 05:52:00,73.0,72.1,30.03,NNE,17,1.0,4.0,97,0.00,,CLR,0.00,0.00,VWS V14.01,2013-08-27 09:52:00,
2013-08-27 05:57:00,73.1,72.2,30.03,NNE,19,3.0,4.0,97,0.00,,CLR,0.00,0.00,VWS V14.01,2013-08-27 09:57:00,
2013-08-27 06:02:00,73.1,72.2,30.03,North,9,2.0,4.0,97,0.00,,CLR,0.00,0.00,VWS V14.01,2013-08-27 10:02:00,
2013-08-27 06:07:00,73.0,72.1,30.04,NNE,24,3.0,4.0,97,0.00,,CLR,0.00,0.00,VWS V14.01,2013-08-27 10:07:00,
2013-08-27 06:12:00,73.0,72.1,30.04,NNE,24,0.0,4.0,97,0.00,,CLR,0.00,0.00,VWS V14.01,2013-08-27 10:12:00,
2013-08-27 06:17:00,72.9,72.0,30.04,NNE,23,0.0,4.0,97,0.00,,CLR,0.00,0.00,VWS V14.01,2013-08-27 10:17:00,
2013-08-27 06:22:00,72.9,72.0,30.04,NNE,23,0.0,4.0,97,0.00,,CLR,0.00,0.00,VWS V14.01,2013-08-27 10:22:00,
2013-08-27 06:27:00,72.8,71.9,30.04,NNE,23,0.0,4.0,97,0.00,,CLR,0.00,0.00,VWS V14.01,2013-08-27 10:27:00,
2013-08-27 06:32:00,72.8,71.9,30.04,NNE,23,0.0,1.0,97,0.00,,CLR,0.00,0.00,VWS V14.01,2013-08-27 10:32:00,
2013-08-27 06:37:00,72.8,71.9,30.04,NNE,23,0.0,2.0,97,0.00,,CLR,0.00,0.00,VWS V14.01,2013-08-27 10:37:00,
2013-08-27 06:42:00,72.7,72.1,30.04,NNE,23,0.0,2.0,98,0.00,,CLR,0.00,0.00,VWS V14.01,2013-08-27 10:42:00,
2013-08-27 06:47:00,72.4,71.8,30.04,NNE,23,0.0,2.0,98,0.00,,CLR,0.00,0.00,VWS V14.01,2013-08-27 10:47:00,
2013-08-27 06:52:00,72.4,71.8,30.04,NNE,23,0.0,2.0,98,0.00,,CLR,0.00,0.00,VWS V14.01,2013-08-27 10:52:00,
2013-08-27 06:57:00,72.4,71.8,30.04,NNE,23,0.0,2.0,98,0.00,,CLR,0.00,0.00,VWS V14.01,2013-08-27 10:57:00,
2013-08-27 07:02:00,72.7,72.1,30.04,NNE,23,0.0,0.0,98,0.00,,CLR,0.00,0.00,VWS V14.01,2013-08-27 11:02:00,
2013-08-27 07:07:00,72.4,71.8,30.04,NNE,23,0.0,0.0,98,0.00,,CLR,0.00,7.00,VWS V14.01,2013-08-27 11:07:00,
2013-08-27 07:12:00,72.2,71.6,30.04,NNE,23,0.0,0.0,98,0.00,,CLR,0.00,9.00,VWS V14.01,2013-08-27 11:12:00,
2013-08-27 07:17:00,72.2,71.6,30.04,NNE,23,0.0,0.0,98,0.00,,CLR,0.00,12.00,VWS V14.01,2013-08-27 11:17:00,
2013-08-27 07:22:00,72.3,71.7,30.04,NNE,23,0.0,1.0,98,0.01,,CLR,0.01,16.00,VWS V14.01,2013-08-27 11:22:00,
2013-08-27 07:27:00,72.5,71.9,30.04,NNE,23,0.0,1.0,98,0.01,,CLR,0.01,23.00,VWS V14.01,2013-08-27 11:27:00,
2013-08-27 07:32:00,72.7,72.1,30.05,NNE,23,2.0,2.0,98,0.01,,CLR,0.01,30.00,VWS V14.01,2013-08-27 11:32:00,
2013-08-27 07:37:00,72.9,72.3,30.05,NNE,14,3.0,3.0,98,0.01,,CLR,0.01,39.00,VWS V14.01,2013-08-27 11:37:00,
2013-08-27 07:42:00,73.1,72.5,30.05,NNE,15,2.0,3.0,98,0.01,,CLR,0.01,49.00,VWS V14.01,2013-08-27 11:42:00,
2013-08-27 07:47:00,73.3,72.7,30.05,NNE,15,1.0,3.0,98,0.01,,CLR,0.01,62.00,VWS V14.01,2013-08-27 11:47:00,
2013-08-27 07:52:00,73.6,73.0,30.05,NE,38,2.0,4.0,98,0.01,,CLR,0.01,74.00,VWS V14.01,2013-08-27 11:52:00,
2013-08-27 07:57:00,73.9,73.3,30.05,NE,36,3.0,4.0,98,0.01,,CLR,0.01,88.00,VWS V14.01,2013-08-27 11:57:00,
2013-08-27 08:02:00,74.1,73.5,30.05,NE,34,1.0,4.0,98,0.01,,,0.01,100.00,VWS V14.01,2013-08-27 12:02:00,
2013-08-27 08:08:00,74.4,73.8,30.05,North,10,1.0,5.0,98,0.01,,,0.01,114.00,VWS V14.01,2013-08-27 12:08:00,
2013-08-27 08:13:00,74.8,74.2,30.05,North,5,2.0,5.0,98,0.01,,,0.01,130.00,VWS V14.01,2013-08-27 12:13:00,
2013-08-27 08:18:00,75.2,74.6,30.05,NNE,12,1.0,5.0,98,0.01,,,0.01,149.00,VWS V14.01,2013-08-27 12:18:00,
2013-08-27 08:23:00,75.7,75.1,30.05,NNE,28,4.0,5.0,98,0.01,,,0.01,169.00,VWS V14.01,2013-08-27 12:23:00,
2013-08-27 08:28:00,76.1,75.2,30.05,North,5,3.0,5.0,97,0.01,,,0.01,192.00,VWS V14.01,2013-08-27 12:28:00,
2013-08-27 08:33:00,76.5,75.6,30.05,NNE,28,5.0,5.0,97,0.00,,,0.01,214.00,VWS V14.01,2013-08-27 12:33:00,
2013-08-27 08:38:00,76.9,75.7,30.05,NNE,32,1.0,5.0,96,0.00,,,0.01,225.00,VWS V14.01,2013-08-27 12:38:00,
2013-08-27 08:43:00,77.4,75.9,30.05,NNE,24,3.0,8.0,95,0.00,,,0.01,230.00,VWS V14.01,2013-08-27 12:43:00,
2013-08-27 08:48:00,78.1,75.9,30.05,NNE,33,4.0,8.0,93,0.00,,,0.01,229.00,VWS V14.01,2013-08-27 12:48:00,
2013-08-27 08:53:00,78.4,75.6,30.05,ENE,61,4.0,9.0,91,0.00,,,0.01,243.00,VWS V14.01,2013-08-27 12:53:00,
2013-08-27 08:58:00,78.9,75.7,30.05,NE,40,1.0,9.0,90,0.00,,,0.01,285.00,VWS V14.01,2013-08-27 12:58:00,
2013-08-27 09:03:00,79.1,75.2,30.05,NE,48,4.0,8.0,88,0.00,,,0.01,332.00,VWS V14.01,2013-08-27 13:03:00,
2013-08-27 09:08:00,79.2,75.3,30.05,East,90,2.0,8.0,88,0.00,,,0.01,353.00,VWS V14.01,2013-08-27 13:08:00,
2013-08-27 09:13:00,79.6,75.4,30.05,ENE,78,3.0,8.0,87,0.00,,,0.01,373.00,VWS V14.01,2013-08-27 13:13:00,
2013-08-27 09:18:00,79.8,75.2,30.06,East,88,7.0,8.0,86,0.00,,,0.01,388.00,VWS V14.01,2013-08-27 13:18:00,
2013-08-27 09:23:00,80.0,75.1,30.06,East,99,4.0,8.0,85,0.00,,,0.01,408.00,VWS V14.01,2013-08-27 13:23:00,
2013-08-27 09:28:00,80.3,75.4,30.06,East,83,5.0,8.0,85,0.00,,,0.01,422.00,VWS V14.01,2013-08-27 13:28:00,
2013-08-27 09:33:00,80.5,74.9,30.06,ENE,63,8.0,8.0,83,0.00,,,0.01,439.00,VWS V14.01,2013-08-27 13:33:00,
2013-08-27 09:38:00,80.6,74.6,30.06,NE,44,6.0,10.0,82,0.00,,,0.01,457.00,VWS V14.01,2013-08-27 13:38:00,
2013-08-27 09:43:00,81.1,75.4,30.06,NNE,26,10.0,10.0,83,0.00,,,0.01,476.00,VWS V14.01,2013-08-27 13:43:00,
2013-08-27 09:48:00,81.3,74.9,30.06,NE,46,4.0,10.0,81,0.00,,,0.01,492.00,VWS V14.01,2013-08-27 13:48:00,
2013-08-27 09:53:00,81.8,75.0,30.06,ENE,74,8.0,10.0,80,0.00,,,0.01,510.00,VWS V14.01,2013-08-27 13:53:00,
2013-08-27 09:58:00,81.9,75.1,30.06,NE,45,7.0,10.0,80,0.00,,FEW018,0.01,526.00,VWS V14.01,2013-08-27 13:58:00,
2013-08-27 10:03:00,82.1,74.9,30.07,East,97,7.0,10.0,79,0.00,,FEW018,0.01,543.00,VWS V14.01,2013-08-27 14:03:00,
2013-08-27 10:08:00,81.9,74.8,30.06,ESE,115,6.0,10.0,79,0.00,,FEW018,0.01,561.00,VWS V14.01,2013-08-27 14:08:00,
2013-08-27 10:13:00,82.9,76.1,30.06,ENE,74,4.0,11.0,80,0.00,,FEW018,0.01,617.00,VWS V14.01,2013-08-27 14:13:00,
2013-08-27 10:18:00,83.2,75.6,30.06,ENE,71,4.0,11.0,78,0.00,,FEW018,0.01,619.00,VWS V14.01,2013-08-27 14:18:00,
2013-08-27 10:23:00,82.9,76.1,30.06,ENE,69,5.0,11.0,80,0.00,,FEW018,0.01,640.00,VWS V14.01,2013-08-27 14:23:00,
2013-08-27 10:28:00,82.8,75.2,30.06,East,84,9.0,14.0,78,0.00,,FEW018,0.01,654.00,VWS V14.01,2013-08-27 14:28:00,
2013-08-27 10:33:00,82.9,74.9,30.06,ENE,70,11.0,11.0,77,0.00,,FEW018,0.01,686.00,VWS V14.01,2013-08-27 14:33:00,
2013-08-27 10:38:00,83.4,74.7,30.06,NE,46,6.0,11.0,75,0.00,,FEW018,0.01,673.00,VWS V14.01,2013-08-27 14:38:00,
2013-08-27 10:43:00,83.2,74.5,30.06,NE,46,6.0,12.0,75,0.00,,FEW018,0.01,680.00,VWS V14.01,2013-08-27 14:43:00,
2013-08-27 10:48:00,83.3,74.6,30.06,NE,53,3.0,12.0,75,0.00,,FEW018,0.01,698.00,VWS V14.01,2013-08-27 14:48:00,
2013-08-27 10:53:00,84.0,75.2,30.06,NE,56,5.0,12.0,75,0.00,,FEW018,0.01,694.00,VWS V14.01,2013-08-27 14:53:00,
2013-08-27 10:58:00,84.1,74.5,30.06,North,360,4.0,13.0,73,0.00,,SCT028,0.01,707.00,VWS V14.01,2013-08-27 14:58:00,
2013-08-27 11:03:00,84.7,75.5,30.06,East,82,5.0,9.0,74,0.00,,SCT028,0.01,722.00,VWS V14.01,2013-08-27 15:03:00,
2013-08-27 11:08:00,84.3,74.7,30.06,ENE,68,6.0,10.0,73,0.00,,SCT028,0.01,729.00,VWS V14.01,2013-08-27 15:08:00,
2013-08-27 11:13:00,84.3,74.7,30.06,ENE,67,4.0,10.0,73,0.00,,SCT028,0.01,740.00,VWS V14.01,2013-08-27 15:13:00,
2013-08-27 11:18:00,84.6,74.2,30.06,ENE,61,5.0,10.0,71,0.00,,SCT028,0.01,793.00,VWS V14.01,2013-08-27 15:18:00,
2013-08-27 11:23:00,85.2,74.3,30.06,ESE,109,7.0,10.0,70,0.00,,SCT028,0.01,768.00,VWS V14.01,2013-08-27 15:23:00,
2013-08-27 11:28:00,84.7,73.8,30.06,ESE,119,4.0,10.0,70,0.00,,SCT028,0.01,837.00,VWS V14.01,2013-08-27 15:28:00,
2013-08-27 11:33:00,84.7,73.4,30.06,East,87,1.0,12.0,69,0.00,,SCT028,0.01,132.00,VWS V14.01,2013-08-27 15:33:00,
2013-08-27 11:38:00,84.7,73.8,30.06,East,79,7.0,12.0,70,0.00,,SCT028,0.01,132.00,VWS V14.01,2013-08-27 15:38:00,
2013-08-27 11:43:00,84.6,74.6,30.06,North,11,5.0,12.0,72,0.00,,SCT028,0.01,912.00,VWS V14.01,2013-08-27 15:43:00,
2013-08-27 11:48:00,85.5,74.6,30.05,NNE,25,3.0,12.0,70,0.00,,SCT028,0.01,930.00,VWS V14.01,2013-08-27 15:48:00,
2013-08-27 11:53:00,85.6,73.8,30.05,ENE,65,5.0,12.0,68,0.00,,SCT028,0.01,956.00,VWS V14.01,2013-08-27 15:53:00,
2013-08-27 11:58:00,84.9,73.2,30.05,ENE,72,4.0,12.0,68,0.00,,SCT036,0.01,974.00,VWS V14.01,2013-08-27 15:58:00,
2013-08-27 11:59:00,84.9,74.0,30.05,East,79,4.0,12.0,70,0.00,,SCT036,0.01,974.00,VWS V14.01,2013-08-27 15:59:00,
2013-08-27 12:04:00,85.2,74.7,30.05,East,85,7.0,10.0,71,0.00,,SCT036,0.01,956.00,VWS V14.01,2013-08-27 16:04:00,
2013-08-27 12:09:00,85.9,74.6,30.05,East,88,4.0,14.0,69,0.00,,SCT036,0.01,963.00,VWS V14.01,2013-08-27 16:09:00,
2013-08-27 12:14:00,86.9,75.1,30.05,ESE,119,9.0,14.0,68,0.00,,SCT036,0.01,960.00,VWS V14.01,2013-08-27 16:14:00,
2013-08-27 12:19:00,85.8,73.1,30.05,NNE,29,3.0,14.0,66,0.00,,SCT036,0.01,306.00,VWS V14.01,2013-08-27 16:19:00,
2013-08-27 12:24:00,86.5,74.2,30.05,ENE,61,8.0,14.0,67,0.00,,SCT036,0.01,1014.00,VWS V14.01,2013-08-27 16:24:00,
2013-08-27 12:29:00,85.7,73.0,30.04,ENE,75,12.0,14.0,66,0.00,,SCT036,0.01,359.00,VWS V14.01,2013-08-27 16:29:00,
2013-08-27 12:34:00,85.0,72.4,30.04,East,92,6.0,9.0,66,0.00,,SCT036,0.01,207.00,VWS V14.01,2013-08-27 16:34:00,
2013-08-27 12:39:00,84.8,73.1,30.04,ESE,106,3.0,9.0,68,0.00,,SCT036,0.01,243.00,VWS V14.01,2013-08-27 16:39:00,
2013-08-27 12:44:00,85.1,72.9,30.04,NE,40,5.0,9.0,67,0.00,,SCT036,0.01,165.00,VWS V14.01,2013-08-27 16:44:00,
2013-08-27 12:49:00,85.0,73.7,30.04,East,86,8.0,9.0,69,0.00,,SCT036,0.01,288.00,VWS V14.01,2013-08-27 16:49:00,
2013-08-27 12:54:00,84.9,72.3,30.04,ENE,64,4.0,10.0,66,0.00,,SCT036,0.01,181.00,VWS V14.01,2013-08-27 16:54:00,
2013-08-27 12:59:00,84.4,72.7,30.04,ESE,102,2.0,10.0,68,0.00,,BKN040,0.01,258.00,VWS V14.01,2013-08-27 16:59:00,
2013-08-27 13:04:00,86.1,74.8,30.04,East,90,9.0,9.0,69,0.00,,BKN040,0.01,1063.00,VWS V14.01,2013-08-27 17:04:00,
2013-08-27 13:09:00,86.7,74.4,30.04,East,83,4.0,13.0,67,0.00,,BKN040,0.01,933.00,VWS V14.01,2013-08-27 17:09:00,
2013-08-27 13:14:00,86.8,72.7,30.04,East,82,7.0,13.0,63,0.00,,BKN040,0.01,993.00,VWS V14.01,2013-08-27 17:14:00,
2013-08-27 13:19:00,87.5,75.6,30.04,East,84,9.0,13.0,68,0.00,,BKN040,0.01,1009.00,VWS V14.01,2013-08-27 17:19:00,
2013-08-27 13:24:00,87.2,73.1,30.04,ESE,119,8.0,13.0,63,0.00,,BKN040,0.01,981.00,VWS V14.01,2013-08-27 17:24:00,
2013-08-27 13:29:00,87.0,73.4,30.03,ESE,108,6.0,13.0,64,0.00,,BKN040,0.01,1042.00,VWS V14.01,2013-08-27 17:29:00,
2013-08-27 13:34:00,87.3,73.2,30.03,ENE,68,3.0,13.0,63,0.00,,BKN040,0.01,1095.00,VWS V14.01,2013-08-27 17:34:00,
2013-08-27 13:39:00,86.6,72.5,30.04,ENE,64,4.0,14.0,63,0.00,,BKN040,0.01,301.00,VWS V14.01,2013-08-27 17:39:00,
2013-08-27 13:44:00,85.6,72.9,30.04,ENE,78,4.0,14.0,66,0.00,,BKN040,0.01,336.00,VWS V14.01,2013-08-27 17:44:00,
2013-08-27 13:49:00,85.5,72.8,30.03,ESE,105,3.0,14.0,66,0.00,,BKN040,0.01,352.00,VWS V14.01,2013-08-27 17:49:00,
2013-08-27 13:54:00,85.9,72.3,30.03,SE,124,3.0,14.0,64,0.00,,BKN040,0.01,338.00,VWS V14.01,2013-08-27 17:54:00,
2013-08-27 14:00:00,86.4,72.8,30.03,East,82,5.0,14.0,64,0.00,,BKN045,0.01,366.00,VWS V14.01,2013-08-27 18:00:00,
2013-08-27 14:05:00,86.8,73.2,30.03,ENE,76,8.0,10.0,64,0.00,,BKN045,0.01,341.00,VWS V14.01,2013-08-27 18:05:00,
2013-08-27 14:10:00,86.3,72.7,30.02,ENE,74,4.0,10.0,64,0.00,,BKN045,0.01,362.00,VWS V14.01,2013-08-27 18:10:00,
2013-08-27 14:15:00,86.4,71.8,30.02,ENE,74,5.0,11.0,62,0.00,,BKN045,0.01,320.00,VWS V14.01,2013-08-27 18:15:00,
2013-08-27 14:20:00,85.7,72.1,30.02,ESE,115,7.0,11.0,64,0.00,,BKN045,0.01,278.00,VWS V14.01,2013-08-27 18:20:00,
2013-08-27 14:25:00,85.5,72.4,30.02,East,85,3.0,11.0,65,0.00,,BKN045,0.01,290.00,VWS V14.01,2013-08-27 18:25:00,
2013-08-27 14:30:00,85.4,72.3,30.02,East,84,8.0,14.0,65,0.00,,BKN045,0.01,374.00,VWS V14.01,2013-08-27 18:30:00,
2013-08-27 14:35:00,87.0,72.9,30.02,East,82,5.0,11.0,63,0.00,,BKN045,0.01,1116.00,VWS V14.01,2013-08-27 18:35:00,
2013-08-27 14:40:00,86.7,72.6,30.01,NE,49,7.0,11.0,63,0.00,,BKN045,0.01,315.00,VWS V14.01,2013-08-27 18:40:00,
2013-08-27 14:45:00,86.3,73.2,30.01,ESE,111,7.0,11.0,65,0.00,,BKN045,0.01,267.00,VWS V14.01,2013-08-27 18:45:00,
2013-08-27 14:50:00,85.3,73.1,30.01,ENE,69,3.0,11.0,67,0.00,,BKN045,0.01,218.00,VWS V14.01,2013-08-27 18:50:00,
2013-08-27 14:55:00,85.0,72.4,30.01,ENE,63,1.0,11.0,66,0.00,,BKN045,0.01,229.00,VWS V14.01,2013-08-27 18:55:00,
2013-08-27 15:00:00,85.0,73.3,30.01,East,91,3.0,11.0,68,0.00,,BKN070,0.01,230.00,VWS V14.01,2013-08-27 19:00:00,
2013-08-27 15:05:00,85.1,72.9,30.01,ENE,75,5.0,7.0,67,0.00,,BKN070,0.01,214.00,VWS V14.01,2013-08-27 19:05:00,
2013-08-27 15:10:00,85.0,72.8,30.01,East,80,7.0,12.0,67,0.00,,BKN070,0.01,156.00,VWS V14.01,2013-08-27 19:10:00,
2013-08-27 15:15:00,84.5,73.7,30.01,ENE,62,8.0,18.0,70,0.00,,BKN070,0.01,195.00,VWS V14.01,2013-08-27 19:15:00,
2013-08-27 15:20:00,84.1,73.3,30.01,East,100,6.0,18.0,70,0.00,,BKN070,0.01,229.00,VWS V14.01,2013-08-27 19:20:00,
2013-08-27 15:25:00,83.7,73.7,30.01,ESE,106,8.0,18.0,72,0.00,,BKN070,0.01,285.00,VWS V14.01,2013-08-27 19:25:00,
2013-08-27 15:30:00,83.8,74.2,30.00,East,99,8.0,18.0,73,0.00,,BKN070,0.01,299.00,VWS V14.01,2013-08-27 19:30:00,
2013-08-27 15:35:00,84.4,74.8,30.00,ESE,109,4.0,6.0,73,0.00,,BKN070,0.01,482.00,VWS V14.01,2013-08-27 19:35:00,
2013-08-27 15:40:00,85.0,75.4,30.00,East,86,4.0,6.0,73,0.00,,BKN070,0.01,373.00,VWS V14.01,2013-08-27 19:40:00,
2013-08-27 15:45:00,85.4,74.1,30.00,NE,51,6.0,6.0,69,0.00,,BKN070,0.01,353.00,VWS V14.01,2013-08-27 19:45:00,
2013-08-27 15:50:00,85.3,74.4,30.00,ENE,59,4.0,6.0,70,0.00,,BKN070,0.01,339.00,VWS V14.01,2013-08-27 19:50:00,
2013-08-27 15:55:00,85.6,73.4,30.00,NE,40,9.0,9.0,67,0.00,,BKN070,0.01,353.00,VWS V14.01,2013-08-27 19:55:00,
2013-08-27 16:00:00,85.7,73.5,30.00,NNE,30,4.0,9.0,67,0.00,,BKN070,0.01,292.00,VWS V14.01,2013-08-27 20:00:00,
2013-08-27 16:05:00,85.6,73.4,30.00,ENE,59,2.0,6.0,67,0.00,,BKN070,0.01,378.00,VWS V14.01,2013-08-27 20:05:00,
2013-08-27 16:10:00,85.9,72.3,29.99,ESE,106,8.0,9.0,64,0.00,,BKN070,0.01,717.00,VWS V14.01,2013-08-27 20:10:00,
2013-08-27 16:15:00,87.0,73.8,29.99,ESE,111,3.0,9.0,65,0.00,,BKN070,0.01,749.00,VWS V14.01,2013-08-27 20:15:00,
2013-08-27 16:20:00,87.0,73.4,29.99,ENE,63,8.0,11.0,64,0.00,,BKN070,0.01,749.00,VWS V14.01,2013-08-27 20:20:00,
2013-08-27 16:25:00,87.5,74.3,30.00,East,92,4.0,11.0,65,0.00,,BKN070,0.01,399.00,VWS V14.01,2013-08-27 20:25:00,
2013-08-27 16:30:00,87.4,72.8,30.00,NE,36,7.0,12.0,62,0.00,,BKN070,0.01,216.00,VWS V14.01,2013-08-27 20:30:00,
2013-08-27 16:35:00,86.1,72.0,30.00,East,100,6.0,12.0,63,0.00,,BKN070,0.01,172.00,VWS V14.01,2013-08-27 20:35:00,
2013-08-27 16:40:00,85.0,71.0,30.00,ENE,67,4.0,12.0,63,0.00,,BKN070,0.01,197.00,VWS V14.01,2013-08-27 20:40:00,
2013-08-27 16:45:00,85.1,71.1,30.00,ESE,107,6.0,12.0,63,0.00,,BKN070,0.01,512.00,VWS V14.01,2013-08-27 20:45:00,
2013-08-27 16:50:00,85.8,71.8,30.00,ESE,103,7.0,12.0,63,0.00,,BKN070,0.01,654.00,VWS V14.01,2013-08-27 20:50:00,
2013-08-27 16:55:00,85.4,71.8,30.00,East,90,4.0,12.0,64,0.00,,BKN070,0.01,181.00,VWS V14.01,2013-08-27 20:55:00,
2013-08-27 17:00:00,86.1,73.0,30.00,ESE,106,7.0,12.0,65,0.00,,BKN060,0.01,559.00,VWS V14.01,2013-08-27 21:00:00,
2013-08-27 17:05:00,86.1,72.0,29.99,SE,125,7.0,13.0,63,0.00,,BKN060,0.01,343.00,VWS V14.01,2013-08-27 21:05:00,
2013-08-27 17:10:00,86.4,70.9,30.00,ENE,62,6.0,13.0,60,0.00,,BKN060,0.01,513.00,VWS V14.01,2013-08-27 21:10:00,
2013-08-27 17:15:00,86.5,71.5,30.00,East,96,4.0,13.0,61,0.00,,BKN060,0.01,496.00,VWS V14.01,2013-08-27 21:15:00,
2013-08-27 17:20:00,86.4,69.9,29.99,NE,44,3.0,13.0,58,0.00,,BKN060,0.01,482.00,VWS V14.01,2013-08-27 21:20:00,
2013-08-27 17:25:00,86.9,70.9,29.99,NE,36,7.0,13.0,59,0.00,,BKN060,0.01,455.00,VWS V14.01,2013-08-27 21:25:00,
2013-08-27 17:30:00,86.9,70.9,30.00,ESE,111,8.0,13.0,59,0.00,,BKN060,0.01,461.00,VWS V14.01,2013-08-27 21:30:00,
2013-08-27 17:35:00,86.6,71.6,29.99,ESE,106,4.0,9.0,61,0.00,,BKN060,0.01,448.00,VWS V14.01,2013-08-27 21:35:00,
2013-08-27 17:40:00,86.2,71.2,29.99,East,85,3.0,9.0,61,0.00,,BKN060,0.01,441.00,VWS V14.01,2013-08-27 21:40:00,
2013-08-27 17:46:00,86.8,71.8,29.99,NE,41,5.0,12.0,61,0.00,,BKN060,0.01,396.00,VWS V14.01,2013-08-27 21:46:00,
2013-08-27 17:51:00,85.8,71.3,29.99,East,79,8.0,12.0,62,0.00,,BKN060,0.01,167.00,VWS V14.01,2013-08-27 21:51:00,
2013-08-27 17:56:00,85.3,71.3,29.99,East,94,6.0,12.0,63,0.00,,BKN060,0.01,146.00,VWS V14.01,2013-08-27 21:56:00,
2013-08-27 18:01:00,85.2,72.1,29.99,ENE,63,6.0,8.0,65,0.00,,BKN075,0.01,378.00,VWS V14.01,2013-08-27 22:01:00,
2013-08-27 18:06:00,85.2,72.6,29.99,ENE,74,5.0,12.0,66,0.00,,BKN075,0.01,236.00,VWS V14.01,2013-08-27 22:06:00,
2013-08-27 18:11:00,85.3,73.6,29.99,NE,54,4.0,12.0,68,0.00,,BKN075,0.01,362.00,VWS V14.01,2013-08-27 22:11:00,
2013-08-27 18:16:00,85.2,73.0,29.99,NNE,15,13.0,15.0,67,0.00,,BKN075,0.01,125.00,VWS V14.01,2013-08-27 22:16:00,
2013-08-27 18:21:00,84.6,72.9,29.99,East,80,3.0,15.0,68,0.00,,BKN075,0.01,100.00,VWS V14.01,2013-08-27 22:21:00,
2013-08-27 18:26:00,84.2,73.4,29.99,ESE,123,4.0,15.0,70,0.00,,BKN075,0.01,253.00,VWS V14.01,2013-08-27 22:26:00,
2013-08-27 18:31:00,83.7,73.3,29.99,ESE,108,6.0,9.0,71,0.00,,BKN075,0.01,216.00,VWS V14.01,2013-08-27 22:31:00,
2013-08-27 18:36:00,83.4,73.8,29.99,ESE,107,7.0,10.0,73,0.00,,BKN075,0.01,206.00,VWS V14.01,2013-08-27 22:36:00,
2013-08-27 18:41:00,83.3,74.2,29.99,ESE,109,8.0,10.0,74,0.00,,BKN075,0.01,185.00,VWS V14.01,2013-08-27 22:41:00,
2013-08-27 18:46:00,83.0,73.5,29.99,SE,126,11.0,11.0,73,0.00,,BKN075,0.01,165.00,VWS V14.01,2013-08-27 22:46:00,
2013-08-27 18:51:00,82.8,72.9,29.99,ENE,75,12.0,14.0,72,0.00,,BKN075,0.01,142.00,VWS V14.01,2013-08-27 22:51:00,
2013-08-27 18:56:00,82.7,72.3,29.99,East,95,9.0,14.0,71,0.00,,BKN075,0.01,128.00,VWS V14.01,2013-08-27 22:56:00,
2013-08-27 19:01:00,82.5,72.2,30.00,ESE,121,8.0,9.0,71,0.00,,SCT075,0.01,109.00,VWS V14.01,2013-08-27 23:01:00,
2013-08-27 19:06:00,82.4,72.1,30.00,ENE,71,3.0,10.0,71,0.00,,SCT075,0.01,90.00,VWS V14.01,2013-08-27 23:06:00,
2013-08-27 19:11:00,82.2,72.3,30.00,ENE,76,5.0,10.0,72,0.00,,SCT075,0.01,58.00,VWS V14.01,2013-08-27 23:11:00,
2013-08-27 19:16:00,82.0,72.1,30.00,East,86,4.0,10.0,72,0.00,,SCT075,0.01,60.00,VWS V14.01,2013-08-27 23:16:00,
2013-08-27 19:21:00,81.9,72.0,30.00,East,91,4.0,10.0,72,0.00,,SCT075,0.01,30.00,VWS V14.01,2013-08-27 23:21:00,
2013-08-27 19:26:00,81.6,72.1,30.00,ENE,68,6.0,10.0,73,0.00,,SCT075,0.01,26.00,VWS V14.01,2013-08-27 23:26:00,
2013-08-27 19:31:00,81.4,71.5,30.00,ENE,78,8.0,8.0,72,0.00,,SCT075,0.01,21.00,VWS V14.01,2013-08-27 23:31:00,
2013-08-27 19:36:00,81.2,71.3,30.00,NE,56,2.0,12.0,72,0.00,,SCT075,0.01,14.00,VWS V14.01,2013-08-27 23:36:00,
2013-08-27 19:41:00,81.0,71.5,30.00,ENE,67,4.0,12.0,73,0.00,,SCT075,0.01,9.00,VWS V14.01,2013-08-27 23:41:00,
2013-08-27 19:46:00,80.9,71.4,30.00,East,80,3.0,12.0,73,0.00,,SCT075,0.01,5.00,VWS V14.01,2013-08-27 23:46:00,
2013-08-27 19:51:00,80.6,71.6,30.00,ENE,74,8.0,12.0,74,0.00,,SCT075,0.01,0.00,VWS V14.01,2013-08-27 23:51:00,
2013-08-27 19:56:00,80.3,71.3,30.00,ENE,61,3.0,12.0,74,0.00,,SCT075,0.01,0.00,VWS V14.01,2013-08-27 23:56:00,
2013-08-27 20:01:00,80.0,71.4,30.00,East,84,3.0,3.0,75,0.00,,OVC085,0.01,0.00,VWS V14.01,2013-08-28 00:01:00,
2013-08-27 20:06:00,79.7,71.1,30.00,ENE,76,2.0,5.0,75,0.00,,OVC085,0.01,0.00,VWS V14.01,2013-08-28 00:06:00,
2013-08-27 20:11:00,79.6,71.4,30.00,ENE,69,2.0,5.0,76,0.00,,OVC085,0.01,0.00,VWS V14.01,2013-08-28 00:11:00,
2013-08-27 20:16:00,79.6,71.4,30.01,ENE,70,2.0,5.0,76,0.00,,OVC085,0.01,0.00,VWS V14.01,2013-08-28 00:16:00,
2013-08-27 20:21:00,79.6,71.4,30.01,ENE,57,1.0,5.0,76,0.00,,BKN085,0.01,0.00,VWS V14.01,2013-08-28 00:21:00,
2013-08-27 20:26:00,79.5,71.3,30.01,ENE,63,1.0,5.0,76,0.00,,BKN085,0.01,0.00,VWS V14.01,2013-08-28 00:26:00,
2013-08-27 20:31:00,79.3,71.5,30.01,ENE,71,1.0,1.0,77,0.00,,BKN085,0.01,0.00,VWS V14.01,2013-08-28 00:31:00,
2013-08-27 20:36:00,79.0,71.2,30.01,East,82,0.0,3.0,77,0.00,,BKN085,0.01,0.00,VWS V14.01,2013-08-28 00:36:00,
2013-08-27 20:41:00,78.8,71.4,30.01,East,88,1.0,4.0,78,0.00,,SCT085,0.01,0.00,VWS V14.01,2013-08-28 00:41:00,
2013-08-27 20:46:00,78.8,71.4,30.01,ENE,66,1.0,5.0,78,0.00,,SCT085,0.01,0.00,VWS V14.01,2013-08-28 00:46:00,
2013-08-27 20:51:00,78.7,71.3,30.01,ENE,67,2.0,5.0,78,0.00,,SCT085,0.01,0.00,VWS V14.01,2013-08-28 00:51:00,
2013-08-27 20:56:00,78.4,71.0,30.01,East,82,1.0,5.0,78,0.00,,SCT085,0.01,0.00,VWS V14.01,2013-08-28 00:56:00,
2013-08-27 21:01:00,78.1,71.1,30.02,ENE,75,3.0,3.0,79,0.00,,BKN085,0.01,0.00,VWS V14.01,2013-08-28 01:01:00,
2013-08-27 21:06:00,77.9,70.5,30.02,ENE,75,3.0,5.0,78,0.00,,BKN085,0.01,0.00,VWS V14.01,2013-08-28 01:06:00,
2013-08-27 21:11:00,78.0,70.6,30.02,East,82,3.0,5.0,78,0.00,,BKN085,0.01,0.00,VWS V14.01,2013-08-28 01:11:00,
2013-08-27 21:16:00,78.0,70.6,30.02,East,79,2.0,5.0,78,0.00,,BKN085,0.01,0.00,VWS V14.01,2013-08-28 01:16:00,
2013-08-27 21:21:00,78.1,70.3,30.02,ENE,76,0.0,5.0,77,0.00,,FEW085,0.01,0.00,VWS V14.01,2013-08-28 01:21:00,
2013-08-27 21:26:00,77.9,70.5,30.02,East,84,1.0,5.0,78,0.00,,FEW085,0.01,0.00,VWS V14.01,2013-08-28 01:26:00,
2013-08-27 21:31:00,77.6,70.6,30.02,East,85,2.0,3.0,79,0.00,,FEW085,0.01,0.00,VWS V14.01,2013-08-28 01:31:00,
2013-08-27 21:37:00,77.6,70.9,30.02,East,91,1.0,4.0,80,0.00,,FEW085,0.01,0.00,VWS V14.01,2013-08-28 01:37:00,
2013-08-27 21:42:00,77.5,70.8,30.03,ESE,107,4.0,6.0,80,0.00,,FEW090,0.01,0.00,VWS V14.01,2013-08-28 01:42:00,
2013-08-27 21:47:00,77.6,70.9,30.03,ESE,120,3.0,6.0,80,0.00,,FEW090,0.01,0.00,VWS V14.01,2013-08-28 01:47:00,
2013-08-27 21:52:00,77.7,70.7,30.02,ESE,112,6.0,7.0,79,0.00,,FEW090,0.01,0.00,VWS V14.01,2013-08-28 01:52:00,
2013-08-27 21:57:00,77.6,70.6,30.03,East,90,3.0,8.0,79,0.00,,FEW090,0.01,0.00,VWS V14.01,2013-08-28 01:57:00,
2013-08-27 22:02:00,77.6,70.6,30.03,ENE,57,2.0,3.0,79,0.00,,SCT090,0.01,0.00,VWS V14.01,2013-08-28 02:02:00,
2013-08-27 22:07:00,77.5,70.5,30.04,ENE,63,0.0,4.0,79,0.00,,SCT090,0.01,0.00,VWS V14.01,2013-08-28 02:07:00,
2013-08-27 22:12:00,77.5,70.5,30.03,ENE,63,0.0,4.0,79,0.00,,SCT090,0.01,0.00,VWS V14.01,2013-08-28 02:12:00,
2013-08-27 22:17:00,77.2,70.6,30.04,ENE,63,0.0,4.0,80,0.00,,SCT090,0.01,0.00,VWS V14.01,2013-08-28 02:17:00,
2013-08-27 22:22:00,76.7,70.4,30.04,ENE,63,0.0,4.0,81,0.00,,BKN085,0.01,0.00,VWS V14.01,2013-08-28 02:22:00,
2013-08-27 22:27:00,76.4,70.5,30.04,ENE,63,0.0,4.0,82,0.00,,BKN085,0.01,0.00,VWS V14.01,2013-08-28 02:27:00,
2013-08-27 22:32:00,76.8,70.5,30.04,ENE,63,0.0,1.0,81,0.00,,BKN085,0.01,0.00,VWS V14.01,2013-08-28 02:32:00,
2013-08-27 22:37:00,76.9,70.6,30.04,ENE,69,2.0,3.0,81,0.00,,BKN085,0.01,0.00,VWS V14.01,2013-08-28 02:37:00,
2013-08-27 22:42:00,76.7,70.8,30.04,ENE,70,1.0,3.0,82,0.00,,SCT085,0.01,0.00,VWS V14.01,2013-08-28 02:42:00,
2013-08-27 22:47:00,76.2,70.7,30.04,ENE,70,1.0,3.0,83,0.00,,SCT085,0.01,0.00,VWS V14.01,2013-08-28 02:47:00,
2013-08-27 22:52:00,76.2,70.7,30.04,ENE,70,1.0,3.0,83,0.00,,SCT085,0.01,0.00,VWS V14.01,2013-08-28 02:52:00,
2013-08-27 22:57:00,76.4,70.9,30.04,ENE,77,1.0,3.0,83,0.00,,SCT085,0.01,0.00,VWS V14.01,2013-08-28 02:57:00,
2013-08-27 23:02:00,76.2,71.0,30.04,ENE,77,0.0,1.0,84,0.00,,SCT085,0.01,0.00,VWS V14.01,2013-08-28 03:02:00,
2013-08-27 23:07:00,76.2,71.0,30.04,ENE,77,1.0,3.0,84,0.00,,SCT085,0.01,0.00,VWS V14.01,2013-08-28 03:07:00,
2013-08-27 23:12:00,76.2,71.0,30.04,ENE,77,0.0,4.0,84,0.00,,SCT085,0.01,0.00,VWS V14.01,2013-08-28 03:12:00,
2013-08-27 23:17:00,76.1,70.9,30.03,ENE,77,1.0,4.0,84,0.00,,CLR,0.01,0.00,VWS V14.01,2013-08-28 03:17:00,
2013-08-27 23:22:00,75.8,71.0,30.03,ENE,77,3.0,4.0,85,0.00,,CLR,0.01,0.00,VWS V14.01,2013-08-28 03:22:00,
2013-08-27 23:27:00,76.0,70.8,30.03,ENE,77,2.0,4.0,84,0.00,,CLR,0.01,0.00,VWS V14.01,2013-08-28 03:27:00,
2013-08-27 23:32:00,76.1,70.6,30.03,ENE,77,1.0,2.0,83,0.00,,CLR,0.01,0.00,VWS V14.01,2013-08-28 03:32:00,
2013-08-27 23:37:00,75.7,70.9,30.03,ENE,78,0.0,3.0,85,0.00,,BKN075,0.01,0.00,VWS V14.01,2013-08-28 03:37:00,
2013-08-27 23:42:00,75.4,70.6,30.03,ENE,78,1.0,3.0,85,0.00,,BKN075,0.01,0.00,VWS V14.01,2013-08-28 03:42:00,
2013-08-27 23:47:00,75.7,70.5,30.03,ENE,78,1.0,3.0,84,0.00,,BKN075,0.01,0.00,VWS V14.01,2013-08-28 03:47:00,
2013-08-27 23:52:00,75.5,70.3,30.03,ENE,78,0.0,3.0,84,0.00,,BKN075,0.01,0.00,VWS V14.01,2013-08-28 03:52:00,
2013-08-27 23:57:00,75.2,70.4,30.03,ENE,78,1.0,3.0,85,0.00,,BKN075,0.01,0.00,VWS V14.01,2013-08-28 03:57:00,